Orbital Elements at Epoch 2459200.5 (2020-Dec-17.0) TDB
Reference: JPL 10 (heliocentric ecliptic J2000)
Element | Value | Uncertainty (1-sigma) | Units |
e | .2355129202798261 | 0.00029786 | |
a | 1.068202321564292 | 0.0001532 | au |
q | .8166268733629958 | 0.00020105 | au |
i | 12.29632436494923 | 0.022891 | deg |
node | 37.72008692474058 | 0.0012085 | deg |
peri | 94.25178759635996 | 0.026728 | deg |
M | 130.6863343856483 | 0.43178 | deg |
tp | 2459054.111696085860 (2020-Jul-23.61169609) | 0.45216 | TDB |
period | 403.2540177733974 1.10 | 0.086753 0.0002375 | d yr |
n | .8927375404410643 | 0.00019206 | deg/d |
Q | 1.319777769765588 | 0.00018929 | au |
|
| | Orbit Determination Parameters
Additional Information
|